Tracking 29606 objects as of 19-Sep-2024
HD Live streaming from Space Station
objects crossing your sky now

STARLINK-32176

Track STARLINK-32176 now!
10-day predictions
STARLINK-32176 is classified as:


NORAD ID: 60340
Int'l Code: 2024-136M
Perigee: 453.7 km
Apogee: 455.2 km
Inclination: 53.2 °
Period: 93.5 minutes
Semi major axis: 6825 km
RCS: Unknown
Launch date: August 2, 2024
Source: United States (US)
Launch site: AIR FORCE EASTERN TEST RANGE (AFETR)
Your satellite tracking list
Your tracking list is empty




NASA's NSSDC Master Catalog

Two Line Element Set (TLE):
1 60340U 24136M   24262.69846600 -.00003792  00000-0 -84942-4 0  9998
2 60340  53.1629  50.2926 0001068 148.5559 211.5510 15.39598900  8616
Source of the keplerian elements: AFSPC